Time,TemperatureF,DewpointF,PressureIn,WindDirection,WindDirectionDegrees,WindSpeedMPH,WindSpeedGustMPH,Humidity,HourlyPrecipIn,Conditions,Clouds,dailyrainin,SoftwareType,DateUTC
2014-12-27 00:00:00,46.8,32.0,29.68,WSW,241,0.0,0.0,19,0.00,,,-99.99,wx200d/1.3,2014-12-27 05:00:00,
2014-12-27 00:05:00,46.9,32.0,29.68,WSW,238,0.0,0.0,19,0.00,,,-99.99,wx200d/1.3,2014-12-27 05:05:00,
2014-12-27 00:10:00,47.3,32.0,29.68,SW,231,0.0,0.0,19,0.00,,,-99.99,wx200d/1.3,2014-12-27 05:10:00,
2014-12-27 00:15:00,47.3,32.0,29.68,SW,231,0.0,0.0,19,0.00,,,-99.99,wx200d/1.3,2014-12-27 05:15:00,
2014-12-27 00:20:00,46.6,32.0,29.68,SW,231,0.0,0.0,19,0.00,,,-99.99,wx200d/1.3,2014-12-27 05:20:00,
2014-12-27 00:25:00,45.9,32.0,29.68,SW,231,0.0,0.0,19,0.00,,,-99.99,wx200d/1.3,2014-12-27 05:25:00,
2014-12-27 00:30:00,45.1,32.0,29.68,SW,231,0.0,0.0,20,0.00,,,-99.99,wx200d/1.3,2014-12-27 05:30:00,
2014-12-27 00:35:00,44.6,32.0,29.68,SW,231,0.0,0.0,20,0.00,,,-99.99,wx200d/1.3,2014-12-27 05:35:00,
2014-12-27 00:41:00,45.0,32.0,29.68,SW,231,0.0,0.0,20,0.00,,,-99.99,wx200d/1.3,2014-12-27 05:41:00,
2014-12-27 00:46:00,45.7,32.0,29.68,SW,231,0.0,0.0,19,0.00,,,-99.99,wx200d/1.3,2014-12-27 05:46:00,
2014-12-27 00:51:00,45.9,32.0,29.68,SW,231,0.0,0.0,19,0.00,,,-99.99,wx200d/1.3,2014-12-27 05:51:00,
2014-12-27 00:56:00,45.3,32.0,29.68,SW,231,0.0,0.0,20,0.00,,,-99.99,wx200d/1.3,2014-12-27 05:56:00,
2014-12-27 01:01:00,44.6,32.0,29.68,SW,231,0.0,0.0,20,0.00,,,-99.99,wx200d/1.3,2014-12-27 06:01:00,
2014-12-27 01:06:00,44.2,32.0,29.68,SW,231,0.0,0.0,20,0.00,,,-99.99,wx200d/1.3,2014-12-27 06:06:00,
2014-12-27 01:11:00,43.7,32.0,29.68,SW,231,0.0,0.0,20,0.00,,,-99.99,wx200d/1.3,2014-12-27 06:11:00,
2014-12-27 01:16:00,43.2,32.0,29.68,SW,230,0.0,0.0,20,0.00,,,-99.99,wx200d/1.3,2014-12-27 06:16:00,
2014-12-27 01:21:00,43.2,32.0,29.68,ESE,116,0.0,0.0,20,0.00,,,-99.99,wx200d/1.3,2014-12-27 06:21:00,
2014-12-27 01:26:00,43.5,32.0,29.68,ESE,116,0.0,0.0,20,0.00,,,-99.99,wx200d/1.3,2014-12-27 06:26:00,
2014-12-27 01:31:00,43.5,32.0,29.68,ESE,116,0.0,0.0,20,0.00,,,-99.99,wx200d/1.3,2014-12-27 06:31:00,
2014-12-27 01:36:00,43.5,32.0,29.68,ESE,116,0.0,0.0,20,0.00,,,-99.99,wx200d/1.3,2014-12-27 06:36:00,
2014-12-27 01:41:00,43.5,32.0,29.68,ESE,116,0.0,0.0,20,0.00,,,-99.99,wx200d/1.3,2014-12-27 06:41:00,
2014-12-27 01:46:00,43.3,32.0,29.68,ESE,116,0.0,0.0,20,0.00,,,-99.99,wx200d/1.3,2014-12-27 06:46:00,
2014-12-27 01:51:00,43.0,32.0,29.68,ESE,116,0.0,0.0,20,0.00,,,-99.99,wx200d/1.3,2014-12-27 06:51:00,
2014-12-27 01:56:00,43.0,32.0,29.68,ESE,116,0.0,0.0,23,0.00,,,-99.99,wx200d/1.3,2014-12-27 06:56:00,
2014-12-27 02:01:00,42.8,32.0,29.68,ESE,116,0.0,0.0,23,0.00,,,-99.99,wx200d/1.3,2014-12-27 07:01:00,
2014-12-27 02:06:00,42.4,32.0,29.68,ESE,114,0.0,0.0,23,0.00,,,-99.99,wx200d/1.3,2014-12-27 07:06:00,
2014-12-27 02:11:00,42.4,32.0,29.68,ESE,114,0.0,4.0,23,0.00,,,-99.99,wx200d/1.3,2014-12-27 07:11:00,
2014-12-27 02:16:00,42.4,32.0,29.68,ESE,114,0.0,4.5,23,0.00,,,-99.99,wx200d/1.3,2014-12-27 07:16:00,
2014-12-27 02:21:00,41.9,32.0,29.68,ESE,114,0.0,0.0,23,0.00,,,-99.99,wx200d/1.3,2014-12-27 07:21:00,
2014-12-27 02:26:00,41.4,32.0,29.68,ESE,114,0.0,0.0,23,0.00,,,-99.99,wx200d/1.3,2014-12-27 07:26:00,
2014-12-27 02:31:00,40.6,32.0,29.68,ESE,114,0.0,0.0,23,0.00,,,-99.99,wx200d/1.3,2014-12-27 07:31:00,
2014-12-27 02:36:00,40.3,32.0,29.68,ESE,114,0.0,0.0,21,0.00,,,-99.99,wx200d/1.3,2014-12-27 07:36:00,
2014-12-27 02:41:00,40.3,32.0,29.68,ESE,114,0.0,0.0,23,0.00,,,-99.99,wx200d/1.3,2014-12-27 07:41:00,
2014-12-27 02:46:00,40.5,32.0,29.68,ESE,114,0.0,0.0,23,0.00,,,-99.99,wx200d/1.3,2014-12-27 07:46:00,
2014-12-27 02:51:00,41.0,32.0,29.68,ESE,112,0.0,0.0,26,0.00,,,-99.99,wx200d/1.3,2014-12-27 07:51:00,
2014-12-27 02:56:00,41.7,32.0,29.68,ESE,112,0.0,0.0,28,0.00,,,-99.99,wx200d/1.3,2014-12-27 07:56:00,
2014-12-27 03:01:00,41.9,32.0,29.68,ESE,112,0.0,0.0,28,0.00,,,-99.99,wx200d/1.3,2014-12-27 08:01:00,
2014-12-27 03:06:00,41.5,32.0,29.68,ESE,112,0.0,0.0,28,0.00,,,-99.99,wx200d/1.3,2014-12-27 08:06:00,
2014-12-27 03:11:00,41.0,32.0,29.68,ESE,112,0.0,0.0,26,0.00,,,-99.99,wx200d/1.3,2014-12-27 08:11:00,
2014-12-27 03:16:00,40.5,32.0,29.68,ESE,112,0.0,0.0,26,0.00,,,-99.99,wx200d/1.3,2014-12-27 08:16:00,
2014-12-27 03:21:00,40.3,32.0,29.68,ESE,112,0.0,0.0,26,0.00,,,-99.99,wx200d/1.3,2014-12-27 08:21:00,
2014-12-27 03:26:00,39.9,32.0,29.68,ESE,112,0.0,0.0,26,0.00,,,-99.99,wx200d/1.3,2014-12-27 08:26:00,
2014-12-27 03:31:00,39.4,32.0,29.68,ESE,112,0.0,0.0,26,0.00,,,-99.99,wx200d/1.3,2014-12-27 08:31:00,
2014-12-27 03:36:00,39.0,32.0,29.68,ESE,112,0.0,0.0,26,0.00,,,-99.99,wx200d/1.3,2014-12-27 08:36:00,
2014-12-27 03:42:00,38.8,32.0,29.68,ESE,112,0.0,0.0,26,0.00,,,-99.99,wx200d/1.3,2014-12-27 08:42:00,
2014-12-27 03:47:00,38.5,32.0,29.68,ESE,112,0.0,0.0,26,0.00,,,-99.99,wx200d/1.3,2014-12-27 08:47:00,
2014-12-27 03:52:00,38.5,32.0,29.68,ESE,112,0.0,0.0,26,0.00,,,-99.99,wx200d/1.3,2014-12-27 08:52:00,
2014-12-27 03:57:00,39.2,32.0,29.68,ESE,112,0.0,0.0,29,0.00,,,-99.99,wx200d/1.3,2014-12-27 08:57:00,
2014-12-27 04:02:00,39.7,32.0,29.68,ESE,112,0.0,0.0,29,0.00,,,-99.99,wx200d/1.3,2014-12-27 09:02:00,
2014-12-27 04:07:00,39.9,32.0,29.68,ESE,112,0.0,0.0,29,0.00,,,-99.99,wx200d/1.3,2014-12-27 09:07:00,
2014-12-27 04:12:00,40.3,32.0,29.68,ESE,112,0.0,0.0,29,0.00,,,-99.99,wx200d/1.3,2014-12-27 09:12:00,
2014-12-27 04:17:00,40.6,32.0,29.68,ESE,112,0.0,0.0,30,0.00,,,-99.99,wx200d/1.3,2014-12-27 09:17:00,
2014-12-27 04:22:00,40.5,32.0,29.68,ESE,112,0.0,0.0,29,0.00,,,-99.99,wx200d/1.3,2014-12-27 09:22:00,
2014-12-27 04:27:00,40.5,32.0,29.68,ESE,112,0.0,0.0,29,0.00,,,-99.99,wx200d/1.3,2014-12-27 09:27:00,
2014-12-27 04:32:00,39.7,32.0,29.68,ESE,112,0.0,0.0,29,0.00,,,-99.99,wx200d/1.3,2014-12-27 09:32:00,
2014-12-27 04:37:00,38.8,32.0,29.68,ESE,112,0.0,0.0,29,0.00,,,-99.99,wx200d/1.3,2014-12-27 09:37:00,
2014-12-27 04:42:00,38.5,32.0,29.68,ESE,112,0.0,0.0,29,0.00,,,-99.99,wx200d/1.3,2014-12-27 09:42:00,
2014-12-27 04:47:00,37.9,32.0,29.68,ESE,112,0.0,0.0,29,0.00,,,-99.99,wx200d/1.3,2014-12-27 09:47:00,
2014-12-27 04:52:00,37.9,32.0,29.68,ESE,112,0.0,0.0,30,0.00,,,-99.99,wx200d/1.3,2014-12-27 09:52:00,
2014-12-27 04:57:00,38.5,32.0,29.68,ESE,112,0.0,0.0,30,0.00,,,-99.99,wx200d/1.3,2014-12-27 09:57:00,
2014-12-27 05:02:00,39.7,32.0,29.68,ESE,112,0.0,0.0,31,0.00,,,-99.99,wx200d/1.3,2014-12-27 10:02:00,
2014-12-27 05:07:00,40.5,32.0,29.68,ESE,112,0.0,0.0,32,0.00,,,-99.99,wx200d/1.3,2014-12-27 10:07:00,
2014-12-27 05:12:00,41.2,32.0,29.68,ESE,112,0.0,0.0,32,0.00,,,-99.99,wx200d/1.3,2014-12-27 10:12:00,
2014-12-27 05:17:00,41.7,32.0,29.68,ESE,112,0.0,0.0,32,0.00,,,-99.99,wx200d/1.3,2014-12-27 10:17:00,
2014-12-27 05:22:00,41.7,32.0,29.68,ESE,112,0.0,0.0,31,0.00,,,-99.99,wx200d/1.3,2014-12-27 10:22:00,
2014-12-27 05:27:00,41.7,32.0,29.71,ESE,112,0.0,0.0,30,0.00,,,-99.99,wx200d/1.3,2014-12-27 10:27:00,
2014-12-27 05:32:00,41.5,32.0,29.71,ESE,112,0.0,0.0,29,0.00,,,-99.99,wx200d/1.3,2014-12-27 10:32:00,
2014-12-27 05:37:00,41.5,32.0,29.71,ESE,112,0.0,0.0,29,0.00,,,-99.99,wx200d/1.3,2014-12-27 10:37:00,
2014-12-27 05:42:00,41.5,32.0,29.68,ESE,112,0.0,0.0,29,0.00,,,-99.99,wx200d/1.3,2014-12-27 10:42:00,
2014-12-27 05:48:00,41.2,32.0,29.68,ESE,113,0.0,0.0,29,0.00,,,-99.99,wx200d/1.3,2014-12-27 10:48:00,
2014-12-27 05:53:00,41.2,32.0,29.68,ESE,113,0.0,0.0,29,0.00,,,-99.99,wx200d/1.3,2014-12-27 10:53:00,
2014-12-27 05:58:00,41.2,32.0,29.68,ESE,113,0.0,0.0,29,0.00,,,-99.99,wx200d/1.3,2014-12-27 10:58:00,
2014-12-27 06:03:00,40.3,32.0,29.68,ESE,113,0.0,0.0,28,0.00,,,-99.99,wx200d/1.3,2014-12-27 11:03:00,
2014-12-27 06:08:00,39.7,32.0,29.68,ESE,113,0.0,0.0,29,0.00,,,-99.99,wx200d/1.3,2014-12-27 11:08:00,
2014-12-27 06:13:00,39.0,32.0,29.71,ESE,113,0.0,0.0,29,0.00,,,-99.99,wx200d/1.3,2014-12-27 11:13:00,
2014-12-27 06:18:00,38.8,32.0,29.71,ESE,113,0.0,0.0,29,0.00,,,-99.99,wx200d/1.3,2014-12-27 11:18:00,
2014-12-27 06:23:00,38.7,32.0,29.71,ESE,113,0.0,0.0,29,0.00,,,-99.99,wx200d/1.3,2014-12-27 11:23:00,
2014-12-27 06:28:00,39.0,32.0,29.71,ESE,113,0.0,0.0,29,0.00,,,-99.99,wx200d/1.3,2014-12-27 11:28:00,
2014-12-27 06:33:00,39.2,32.0,29.71,ESE,113,0.0,0.0,29,0.00,,,-99.99,wx200d/1.3,2014-12-27 11:33:00,
2014-12-27 06:38:00,39.6,32.0,29.71,ESE,113,0.0,0.0,29,0.00,,,-99.99,wx200d/1.3,2014-12-27 11:38:00,
2014-12-27 06:43:00,40.3,32.0,29.71,ESE,110,0.0,0.0,30,0.00,,,-99.99,wx200d/1.3,2014-12-27 11:43:00,
2014-12-27 06:48:00,40.5,32.0,29.71,ESE,110,0.0,0.0,30,0.00,,,-99.99,wx200d/1.3,2014-12-27 11:48:00,
2014-12-27 06:53:00,40.6,32.0,29.71,ESE,110,0.0,0.0,31,0.00,,,-99.99,wx200d/1.3,2014-12-27 11:53:00,
2014-12-27 06:59:00,40.6,32.0,29.71,ESE,110,0.0,0.0,30,0.00,,,-99.99,wx200d/1.3,2014-12-27 11:59:00,
2014-12-27 07:04:00,39.7,32.0,29.71,East,80,0.0,4.9,30,0.00,,,-99.99,wx200d/1.3,2014-12-27 12:04:00,
2014-12-27 07:09:00,38.8,32.0,29.71,East,80,0.0,0.0,30,0.00,,,-99.99,wx200d/1.3,2014-12-27 12:09:00,
2014-12-27 07:14:00,38.5,32.0,29.71,East,80,0.0,0.0,30,0.00,,,-99.99,wx200d/1.3,2014-12-27 12:14:00,
2014-12-27 07:19:00,38.3,32.0,29.71,East,80,0.0,0.0,30,0.00,,,-99.99,wx200d/1.3,2014-12-27 12:19:00,
2014-12-27 07:24:00,38.1,32.0,29.71,East,80,0.0,0.0,31,0.00,,,-99.99,wx200d/1.3,2014-12-27 12:24:00,
2014-12-27 07:29:00,38.1,32.0,29.71,East,80,0.0,0.0,31,0.00,,,-99.99,wx200d/1.3,2014-12-27 12:29:00,
2014-12-27 07:34:00,38.5,32.0,29.71,East,80,0.0,0.0,30,0.00,,,-99.99,wx200d/1.3,2014-12-27 12:34:00,
2014-12-27 07:39:00,38.5,32.0,29.71,East,80,0.0,0.0,30,0.00,,,-99.99,wx200d/1.3,2014-12-27 12:39:00,
2014-12-27 07:44:00,38.5,32.0,29.71,East,80,0.0,0.0,30,0.00,,,-99.99,wx200d/1.3,2014-12-27 12:44:00,
2014-12-27 07:49:00,38.3,32.0,29.71,East,80,0.0,0.0,31,0.00,,,-99.99,wx200d/1.3,2014-12-27 12:49:00,
2014-12-27 07:54:00,37.8,32.0,29.71,East,80,0.0,0.0,31,0.00,,,-99.99,wx200d/1.3,2014-12-27 12:54:00,
2014-12-27 07:59:00,37.8,32.0,29.71,East,80,0.0,0.0,31,0.00,,,-99.99,wx200d/1.3,2014-12-27 12:59:00,
2014-12-27 08:04:00,37.8,32.0,29.71,East,80,0.0,0.0,31,0.00,,,-99.99,wx200d/1.3,2014-12-27 13:04:00,
2014-12-27 08:09:00,37.4,32.0,29.71,East,80,0.0,0.0,31,0.00,,,-99.99,wx200d/1.3,2014-12-27 13:09:00,
2014-12-27 08:14:00,37.4,32.0,29.71,East,80,0.0,0.0,31,0.00,,,-99.99,wx200d/1.3,2014-12-27 13:14:00,
2014-12-27 08:19:00,37.4,32.0,29.71,East,80,0.0,0.0,31,0.00,,,-99.99,wx200d/1.3,2014-12-27 13:19:00,
2014-12-27 08:24:00,37.0,32.0,29.71,East,80,0.0,0.0,31,0.00,,,-99.99,wx200d/1.3,2014-12-27 13:24:00,
2014-12-27 08:29:00,37.4,32.0,29.71,East,80,0.0,0.0,31,0.00,,,-99.99,wx200d/1.3,2014-12-27 13:29:00,
2014-12-27 08:34:00,37.8,32.0,29.71,East,80,0.0,0.0,31,0.00,,,-99.99,wx200d/1.3,2014-12-27 13:34:00,
2014-12-27 08:39:00,37.9,32.0,29.71,East,80,0.0,0.0,31,0.00,,,-99.99,wx200d/1.3,2014-12-27 13:39:00,
2014-12-27 08:44:00,37.9,32.0,29.71,East,80,0.0,0.0,31,0.00,,,-99.99,wx200d/1.3,2014-12-27 13:44:00,
2014-12-27 08:49:00,38.7,32.0,29.71,East,80,0.0,0.0,32,0.00,,,-99.99,wx200d/1.3,2014-12-27 13:49:00,
2014-12-27 08:54:00,39.4,32.0,29.71,East,80,0.0,0.0,32,0.00,,,-99.99,wx200d/1.3,2014-12-27 13:54:00,
2014-12-27 08:59:00,40.1,32.0,29.74,East,80,0.0,0.0,32,0.00,,,-99.99,wx200d/1.3,2014-12-27 13:59:00,
2014-12-27 09:04:00,40.5,32.0,29.74,East,80,0.0,3.6,32,0.00,,,-99.99,wx200d/1.3,2014-12-27 14:04:00,
2014-12-27 09:09:00,40.6,32.0,29.74,East,80,0.0,0.0,32,0.00,,,-99.99,wx200d/1.3,2014-12-27 14:09:00,
2014-12-27 09:14:00,41.0,32.0,29.74,East,80,0.0,0.0,32,0.00,,,-99.99,wx200d/1.3,2014-12-27 14:14:00,
2014-12-27 09:19:00,41.7,32.0,29.74,East,80,0.0,0.0,33,0.00,,,-99.99,wx200d/1.3,2014-12-27 14:19:00,
2014-12-27 09:24:00,42.4,32.0,29.74,East,80,0.0,0.0,33,0.00,,,-99.99,wx200d/1.3,2014-12-27 14:24:00,
2014-12-27 09:30:00,43.5,32.0,29.74,East,80,0.0,0.0,33,0.00,,,-99.99,wx200d/1.3,2014-12-27 14:30:00,
2014-12-27 09:35:00,44.6,32.0,29.74,East,80,0.0,0.0,33,0.00,,,-99.99,wx200d/1.3,2014-12-27 14:35:00,
2014-12-27 09:40:00,45.5,32.0,29.74,East,80,0.0,0.0,33,0.00,,,-99.99,wx200d/1.3,2014-12-27 14:40:00,
2014-12-27 09:45:00,46.6,32.0,29.74,East,80,0.0,0.0,34,0.00,,,-99.99,wx200d/1.3,2014-12-27 14:45:00,
2014-12-27 09:50:00,47.3,32.0,29.74,East,80,0.0,0.0,33,0.00,,,-99.99,wx200d/1.3,2014-12-27 14:50:00,
2014-12-27 09:55:00,47.8,32.0,29.74,East,80,0.0,0.0,33,0.00,,,-99.99,wx200d/1.3,2014-12-27 14:55:00,
2014-12-27 10:00:00,48.0,32.0,29.74,East,80,0.0,0.0,32,0.00,,,-99.99,wx200d/1.3,2014-12-27 15:00:00,
2014-12-27 10:05:00,48.4,32.0,29.74,East,80,0.0,0.0,33,0.00,,,-99.99,wx200d/1.3,2014-12-27 15:05:00,
2014-12-27 10:10:00,49.5,32.0,29.74,East,80,0.0,0.0,33,0.00,,,-99.99,wx200d/1.3,2014-12-27 15:10:00,
2014-12-27 10:15:00,50.5,32.0,29.74,East,80,0.0,0.0,34,0.00,,,-99.99,wx200d/1.3,2014-12-27 15:15:00,
2014-12-27 10:20:00,52.0,32.0,29.74,East,80,0.0,0.0,33,0.00,,,-99.99,wx200d/1.3,2014-12-27 15:20:00,
2014-12-27 10:25:00,52.3,32.0,29.74,East,80,0.0,0.0,31,0.00,,,-99.99,wx200d/1.3,2014-12-27 15:25:00,
2014-12-27 10:30:00,53.1,32.0,29.74,East,80,0.0,0.0,31,0.00,,,-99.99,wx200d/1.3,2014-12-27 15:30:00,
2014-12-27 10:35:00,53.8,32.0,29.74,East,80,0.0,0.0,30,0.00,,,-99.99,wx200d/1.3,2014-12-27 15:35:00,
2014-12-27 10:40:00,54.5,32.0,29.74,East,80,0.0,0.0,28,0.00,,,-99.99,wx200d/1.3,2014-12-27 15:40:00,
2014-12-27 10:45:00,54.5,32.0,29.74,ENE,78,0.0,2.7,26,0.00,,,-99.99,wx200d/1.3,2014-12-27 15:45:00,
2014-12-27 10:50:00,53.6,32.0,29.74,ENE,75,0.0,4.0,20,0.00,,,-99.99,wx200d/1.3,2014-12-27 15:50:00,
2014-12-27 10:55:00,53.1,32.0,29.74,WNW,294,2.7,4.5,18,0.00,,,-99.99,wx200d/1.3,2014-12-27 15:55:00,
2014-12-27 11:00:00,53.2,32.0,29.74,WNW,295,0.0,2.7,18,0.00,,,-99.99,wx200d/1.3,2014-12-27 16:00:00,
2014-12-27 11:05:00,53.4,32.0,29.74,WSW,253,2.7,4.0,18,0.00,,,-99.99,wx200d/1.3,2014-12-27 16:05:00,
2014-12-27 11:10:00,53.8,32.0,29.74,WSW,253,0.0,2.7,18,0.00,,,-99.99,wx200d/1.3,2014-12-27 16:10:00,
2014-12-27 11:15:00,54.0,32.0,29.74,WSW,253,0.0,3.1,18,0.00,,,-99.99,wx200d/1.3,2014-12-27 16:15:00,
2014-12-27 11:20:00,54.5,32.0,29.74,WSW,253,0.0,3.6,18,0.00,,,-99.99,wx200d/1.3,2014-12-27 16:20:00,
2014-12-27 11:26:00,54.7,32.0,29.74,WSW,253,0.0,4.5,17,0.00,,,-99.99,wx200d/1.3,2014-12-27 16:26:00,
2014-12-27 11:31:00,55.0,32.0,29.71,WSW,239,0.0,0.0,17,0.00,,,-99.99,wx200d/1.3,2014-12-27 16:31:00,
2014-12-27 11:36:00,55.4,32.0,29.71,WSW,239,0.0,0.0,17,0.00,,,-99.99,wx200d/1.3,2014-12-27 16:36:00,
2014-12-27 11:41:00,55.9,32.0,29.71,SW,234,0.0,3.6,17,0.00,,,-99.99,wx200d/1.3,2014-12-27 16:41:00,
2014-12-27 11:46:00,56.1,32.0,29.71,SW,233,0.0,0.0,17,0.00,,,-99.99,wx200d/1.3,2014-12-27 16:46:00,
2014-12-27 11:51:00,56.5,32.0,29.71,SW,234,0.0,0.0,17,0.00,,,-99.99,wx200d/1.3,2014-12-27 16:51:00,
2014-12-27 11:56:00,57.2,32.0,29.71,SW,234,0.0,0.0,17,0.00,,,-99.99,wx200d/1.3,2014-12-27 16:56:00,
2014-12-27 12:01:00,57.6,32.0,29.68,SW,234,0.0,0.0,17,0.00,,,-99.99,wx200d/1.3,2014-12-27 17:01:00,
2014-12-27 12:06:00,57.9,32.0,29.68,SW,235,0.0,0.0,17,0.00,,,-99.99,wx200d/1.3,2014-12-27 17:06:00,
2014-12-27 12:11:00,58.1,32.0,29.68,SW,234,0.0,4.0,17,0.00,,,-99.99,wx200d/1.3,2014-12-27 17:11:00,
2014-12-27 12:16:00,58.5,32.0,29.68,SW,235,0.0,0.0,17,0.00,,,-99.99,wx200d/1.3,2014-12-27 17:16:00,
2014-12-27 12:21:00,58.6,32.0,29.68,WSW,237,0.0,0.0,17,0.00,,,-99.99,wx200d/1.3,2014-12-27 17:21:00,
2014-12-27 12:26:00,59.4,32.0,29.68,SW,235,0.0,0.0,17,0.00,,,-99.99,wx200d/1.3,2014-12-27 17:26:00,
2014-12-27 12:31:00,59.7,32.0,29.68,SW,231,0.0,2.7,17,0.00,,,-99.99,wx200d/1.3,2014-12-27 17:31:00,
2014-12-27 12:37:00,60.1,32.0,29.68,SW,229,0.0,3.1,16,0.00,,,-99.99,wx200d/1.3,2014-12-27 17:37:00,
2014-12-27 12:42:00,60.1,32.0,29.68,SW,230,0.0,0.0,16,0.00,,,-99.99,wx200d/1.3,2014-12-27 17:42:00,
2014-12-27 12:47:00,60.3,32.0,29.68,SW,230,0.0,4.0,16,0.00,,,-99.99,wx200d/1.3,2014-12-27 17:47:00,
2014-12-27 12:52:00,60.6,32.0,29.68,SW,230,0.0,0.0,16,0.00,,,-99.99,wx200d/1.3,2014-12-27 17:52:00,
2014-12-27 12:57:00,61.7,32.0,29.65,SW,229,0.0,0.0,16,0.00,,,-99.99,wx200d/1.3,2014-12-27 17:57:00,
2014-12-27 13:02:00,62.2,32.0,29.65,SW,218,0.0,0.0,16,0.00,,,-99.99,wx200d/1.3,2014-12-27 18:02:00,
2014-12-27 13:07:00,62.1,32.0,29.65,SW,216,0.0,0.0,16,0.00,,,-99.99,wx200d/1.3,2014-12-27 18:07:00,
2014-12-27 13:12:00,62.4,32.0,29.65,SW,216,0.0,0.0,16,0.00,,,-99.99,wx200d/1.3,2014-12-27 18:12:00,
2014-12-27 13:17:00,63.0,32.0,29.65,SW,215,0.0,0.0,16,0.00,,,-99.99,wx200d/1.3,2014-12-27 18:17:00,
2014-12-27 13:22:00,62.8,32.0,29.65,SSW,211,0.0,0.0,16,0.00,,,-99.99,wx200d/1.3,2014-12-27 18:22:00,
2014-12-27 13:27:00,63.3,32.0,29.65,SSW,211,0.0,0.0,16,0.00,,,-99.99,wx200d/1.3,2014-12-27 18:27:00,
2014-12-27 13:32:00,64.0,32.0,29.65,SSW,211,0.0,0.0,15,0.00,,,-99.99,wx200d/1.3,2014-12-27 18:32:00,
2014-12-27 13:37:00,63.9,32.0,29.65,SSW,211,0.0,0.0,15,0.00,,,-99.99,wx200d/1.3,2014-12-27 18:37:00,
2014-12-27 13:42:00,63.7,32.0,29.62,SSW,211,0.0,0.0,15,0.00,,,-99.99,wx200d/1.3,2014-12-27 18:42:00,
2014-12-27 13:47:00,63.9,32.0,29.62,SSW,211,0.0,0.0,15,0.00,,,-99.99,wx200d/1.3,2014-12-27 18:47:00,
2014-12-27 13:52:00,64.0,32.0,29.62,WSW,247,0.0,2.7,15,0.00,,,-99.99,wx200d/1.3,2014-12-27 18:52:00,
2014-12-27 13:57:00,63.7,32.0,29.62,WSW,251,0.0,2.7,15,0.00,,,-99.99,wx200d/1.3,2014-12-27 18:57:00,
2014-12-27 14:02:00,63.1,32.0,29.62,WSW,257,0.0,0.0,16,0.00,,,-99.99,wx200d/1.3,2014-12-27 19:02:00,
2014-12-27 14:07:00,63.1,32.0,29.62,WSW,253,0.0,5.8,16,0.00,,,-99.99,wx200d/1.3,2014-12-27 19:07:00,
2014-12-27 14:12:00,63.1,32.0,29.62,WSW,253,0.0,3.6,16,0.00,,,-99.99,wx200d/1.3,2014-12-27 19:12:00,
2014-12-27 14:17:00,63.1,32.0,29.62,WNW,283,0.0,0.0,16,0.00,,,-99.99,wx200d/1.3,2014-12-27 19:17:00,
2014-12-27 14:22:00,63.3,32.0,29.62,WSW,245,0.0,0.0,16,0.00,,,-99.99,wx200d/1.3,2014-12-27 19:22:00,
2014-12-27 14:27:00,63.7,32.0,29.62,WSW,246,0.0,4.0,15,0.00,,,-99.99,wx200d/1.3,2014-12-27 19:27:00,
2014-12-27 14:32:00,63.9,32.0,29.62,WSW,240,0.0,4.9,15,0.00,,,-99.99,wx200d/1.3,2014-12-27 19:32:00,
2014-12-27 14:37:00,64.0,32.0,29.62,SW,235,0.0,5.4,15,0.00,,,-99.99,wx200d/1.3,2014-12-27 19:37:00,
2014-12-27 14:42:00,63.7,32.0,29.62,SW,230,4.5,5.4,15,0.00,,,-99.99,wx200d/1.3,2014-12-27 19:42:00,
2014-12-27 14:47:00,63.5,32.0,29.62,SW,228,0.0,4.5,16,0.00,,,-99.99,wx200d/1.3,2014-12-27 19:47:00,
2014-12-27 14:52:00,63.3,32.0,29.62,South,189,6.7,7.4,16,0.00,,,-99.99,wx200d/1.3,2014-12-27 19:52:00,
2014-12-27 14:57:00,63.1,32.0,29.62,South,186,0.0,7.4,16,0.00,,,-99.99,wx200d/1.3,2014-12-27 19:57:00,
2014-12-27 15:03:00,63.0,32.0,29.62,SW,222,0.0,4.0,16,0.00,,,-99.99,wx200d/1.3,2014-12-27 20:03:00,
2014-12-27 15:08:00,63.1,32.0,29.62,SW,225,0.0,5.8,16,0.00,,,-99.99,wx200d/1.3,2014-12-27 20:08:00,
2014-12-27 15:13:00,63.1,32.0,29.62,SW,226,5.4,6.3,16,0.00,,,-99.99,wx200d/1.3,2014-12-27 20:13:00,
2014-12-27 15:18:00,63.1,32.0,29.62,SW,214,0.0,4.9,16,0.00,,,-99.99,wx200d/1.3,2014-12-27 20:18:00,
2014-12-27 15:23:00,63.5,32.0,29.62,SW,218,0.0,0.0,15,0.00,,,-99.99,wx200d/1.3,2014-12-27 20:23:00,
2014-12-27 15:28:00,63.9,32.0,29.62,SW,218,0.0,0.0,15,0.00,,,-99.99,wx200d/1.3,2014-12-27 20:28:00,
2014-12-27 15:33:00,64.0,32.0,29.62,SW,218,0.0,0.0,15,0.00,,,-99.99,wx200d/1.3,2014-12-27 20:33:00,
2014-12-27 15:38:00,64.2,32.0,29.62,SW,218,0.0,0.0,15,0.00,,,-99.99,wx200d/1.3,2014-12-27 20:38:00,
2014-12-27 15:43:00,63.9,32.0,29.62,SW,214,0.0,0.0,15,0.00,,,-99.99,wx200d/1.3,2014-12-27 20:43:00,
2014-12-27 15:48:00,63.9,32.0,29.62,SW,214,0.0,0.0,15,0.00,,,-99.99,wx200d/1.3,2014-12-27 20:48:00,
2014-12-27 15:53:00,64.4,32.0,29.62,SW,214,0.0,0.0,15,0.00,,,-99.99,wx200d/1.3,2014-12-27 20:53:00,
2014-12-27 15:58:00,64.8,32.0,29.62,SW,214,0.0,0.0,15,0.00,,,-99.99,wx200d/1.3,2014-12-27 20:58:00,
2014-12-27 16:03:00,64.8,32.0,29.62,SW,214,0.0,0.0,15,0.00,,,-99.99,wx200d/1.3,2014-12-27 21:03:00,
2014-12-27 16:08:00,64.2,32.0,29.62,SW,214,0.0,0.0,15,0.00,,,-99.99,wx200d/1.3,2014-12-27 21:08:00,
2014-12-27 16:13:00,63.3,32.0,29.59,SSW,213,0.0,0.0,16,0.00,,,-99.99,wx200d/1.3,2014-12-27 21:13:00,
2014-12-27 16:19:00,62.4,32.0,29.59,SSW,213,0.0,0.0,16,0.00,,,-99.99,wx200d/1.3,2014-12-27 21:19:00,
2014-12-27 16:24:00,61.9,32.0,29.59,SSW,211,0.0,0.0,16,0.00,,,-99.99,wx200d/1.3,2014-12-27 21:24:00,
2014-12-27 16:29:00,61.7,32.0,29.59,SSW,211,0.0,0.0,16,0.00,,,-99.99,wx200d/1.3,2014-12-27 21:29:00,
2014-12-27 16:34:00,61.3,32.0,29.59,SSW,208,0.0,0.0,16,0.00,,,-99.99,wx200d/1.3,2014-12-27 21:34:00,
2014-12-27 16:39:00,61.3,32.0,29.59,SE,144,0.0,0.0,16,0.00,,,-99.99,wx200d/1.3,2014-12-27 21:39:00,
2014-12-27 16:44:00,61.0,32.0,29.59,SE,138,5.4,6.7,16,0.00,,,-99.99,wx200d/1.3,2014-12-27 21:44:00,
2014-12-27 16:49:00,61.0,32.0,29.59,SSE,152,0.0,3.6,16,0.00,,,-99.99,wx200d/1.3,2014-12-27 21:49:00,
2014-12-27 16:54:00,60.6,32.0,29.59,SE,136,0.0,4.5,16,0.00,,,-99.99,wx200d/1.3,2014-12-27 21:54:00,
2014-12-27 16:59:00,60.1,32.0,29.59,SE,136,0.0,0.0,16,0.00,,,-99.99,wx200d/1.3,2014-12-27 21:59:00,
2014-12-27 17:04:00,59.4,32.0,29.59,SE,135,0.0,0.0,17,0.00,,,-99.99,wx200d/1.3,2014-12-27 22:04:00,
2014-12-27 17:09:00,58.6,32.0,29.59,SE,135,0.0,0.0,17,0.00,,,-99.99,wx200d/1.3,2014-12-27 22:09:00,
2014-12-27 17:14:00,58.3,32.0,29.59,SE,135,0.0,0.0,17,0.00,,,-99.99,wx200d/1.3,2014-12-27 22:14:00,
2014-12-27 17:19:00,57.9,32.0,29.59,SE,131,0.0,0.0,17,0.00,,,-99.99,wx200d/1.3,2014-12-27 22:19:00,
2014-12-27 17:24:00,57.6,32.0,29.59,SE,125,0.0,0.0,17,0.00,,,-99.99,wx200d/1.3,2014-12-27 22:24:00,
2014-12-27 17:29:00,57.4,32.0,29.59,ESE,123,0.0,0.0,17,0.00,,,-99.99,wx200d/1.3,2014-12-27 22:29:00,
2014-12-27 17:35:00,56.8,32.0,29.59,ESE,123,0.0,0.0,17,0.00,,,-99.99,wx200d/1.3,2014-12-27 22:35:00,
2014-12-27 17:40:00,55.9,32.0,29.59,ESE,123,0.0,0.0,17,0.00,,,-99.99,wx200d/1.3,2014-12-27 22:40:00,
2014-12-27 17:45:00,55.8,32.0,29.62,SE,132,0.0,0.0,17,0.00,,,-99.99,wx200d/1.3,2014-12-27 22:45:00,
2014-12-27 17:50:00,56.8,32.0,29.62,SSE,165,0.0,7.4,17,0.00,,,-99.99,wx200d/1.3,2014-12-27 22:50:00,
2014-12-27 17:55:00,58.1,32.0,29.62,South,172,6.3,8.3,17,0.00,,,-99.99,wx200d/1.3,2014-12-27 22:55:00,
2014-12-27 18:00:00,58.8,32.0,29.62,SE,124,6.9,8.7,17,0.00,,,-99.99,wx200d/1.3,2014-12-27 23:00:00,
2014-12-27 18:05:00,59.4,32.0,29.62,South,175,6.3,7.8,17,0.00,,,-99.99,wx200d/1.3,2014-12-27 23:05:00,
2014-12-27 18:10:00,59.4,32.0,29.62,South,180,7.8,11.6,17,0.00,,,-99.99,wx200d/1.3,2014-12-27 23:10:00,
2014-12-27 18:15:00,59.4,32.0,29.62,SSW,193,6.9,8.7,17,0.00,,,-99.99,wx200d/1.3,2014-12-27 23:15:00,